DELTA 1 DEB, 10649

Orbit data source: Space-Track

DELTA 1 DEB, 10649 is space debris in LEO originally from a launch on Thu, 29 Jul 1976 UTC launched from the Air Force Western Test Range (AFWTR). Debris objects in space refer to the collection of defunct objects orbiting the Earth. Examples of debris include non-operational satellites, rocket bodies, and fragments generated from explosions, collisions, or faulty payload assembly.

Loading next visibility...
Identifier
10649, 1976-077K
Orbit
LEO
Country
Flag of USUS
Related business
Manufacturer
Unknown
Mission
Spacecraft
Bus & Motor
Unknown
Mass
Unknown
Launch date (UTC)
1976-07-29 (50 years ago)
Launch vehicle
Unknown
Launch site
Air Force Western Test Range (AFWTR)
Object type
Payload
Rocket body
Debris
Shape & HBR
Unknown shape, 0.3 m
Radar Cross Section
Small (<0.1 m²)

Expand to show TLE details & history
Last TLE update: 1 day ago

TLE from 1 day ago
0 DELTA 1 DEB
1 10649U 76077K   26072.75603461 -.00000062  00000-0 -28644-3 0  9993
2 10649 102.2904   7.9195 0375952 250.5443 134.7230 11.80252762125052
Epoch: 2026-03-13T18:08Z
TLE epoch observation values (Epoch: 2026-03-13T18:08:41.390Z)
Latitude
27.5624°
Longitude
-82.13913°
Altitude
1,994.682 km
Speed
6.809 km/s
True Right ascension
00h 05m 40s
True Declination
27° 26' 33"
Sunlit
Object was in daylight at epoch
Visualization orbit readout
Latitude
Unknown
Longitude
Unknown
Altitude
Unknown
Speed
Unknown
Apparent Right ascension
Unknown
Apparent Declination
Unknown
Sunlit
N/A
Visualization observer readout
Local Sidereal Time
04:54:44
Azimuth
Unknown
Elevation
Unknown
Doppler factor
Unknown
Orbital elements
Apogee altitude
2,074.431 km
Perigee altitude
1,461.907 km
Semi-major axis
8,146.306 km
Eccentricity
0.0376
Inclination
102.2904°
RAAN
7.9195°
Arg. of periapsis
250.5443°
True anomaly
137.68456°
Mean anomaly
134.723°
Eccentric anomaly
136.21354°
Mean motion
2.9519 °/min
Orbital period
121.96 mins
BSTAR
-0.00028644
Loading maneuver chart data...
Computing Atmospheric mass density...
Loading historical data...
Loading historical data...
Loading historical data...
Loading historical data...
Loading historical data...
Loading historical data...
Loading historical data...

Documentation

Showing up to 5 results
|